White Plains, CT

11:42 PM EST on November 18, 2019 (GMT -0500)
Westchester County

Weather History for KHPN - September, 2019

Change the Weather History Date:

Sunday, September 15, 2019

  Actual Average Record
Temperature  
Mean Temperature 71 °F -  
Max Temperature 80 °F 72 °F 87 °F (1993)
Min Temperature 63 °F 55 °F 40 °F (1975)
Cooling Degree Days 6    
Growing Degree Days 21 (Base 50)    
Moisture  
Dew Point 60 °F    
Average Humidity 77    
Maximum Humidity 100    
Minimum Humidity 36    
Precipitation  
Precipitation 0.00 in - - ()
Sea Level Pressure  
Sea Level Pressure 30.12 in    
Wind  
Wind Speed 3 mph ()    
Max Wind Speed 12 mph    
Max Gust Speed -    
Visibility 8.5 miles    
Events      
Averages and records for this station are not official NWS values.
T = Trace of Precipitation, MM = Missing Value Source: Averaged Metar Reports

Daily Weather History Graph

Daily Weather History Graph

Search for Another Location

Airport or City:

Astronomy

Sep. 15, 2019 Rise Set
Actual Time 6:35 AM EDT 7:04 PM EDT
Civil Twilight 6:07 AM EDT 7:31 PM EDT
Nautical Twilight 5:34 AM EDT 8:04 PM EDT
Astronomical Twilight 5:01 AM EDT 8:37 PM EDT
Moon 8:10 PM EDT (9/15) 7:42 AM EDT (9/15)
Length of Visible Light 13h 24m
Length of Day
12h 29m
Full, 98% of the Moon is Illuminated
Sep 15
Full
Sep 21
Last Quarter
Sep 28
New
Oct 5
First Quarter
Oct 13
Full

Hourly Weather History & Observations

Time (EDT) Temp. Dew Point Humidity Pressure Visibility Wind Dir Wind Speed Gust Speed Precip Events Conditions
12:19 AM 69.1 °F 66.0 °F 90% 30.16 in 6.0 mi West 3.5 mph - N/A   Overcast
12:56 AM 66.9 °F 66.0 °F 97% 30.15 in 6.0 mi Calm Calm - N/A   Mostly Cloudy
1:11 AM 66.9 °F 66.0 °F 97% 30.16 in 7.0 mi Calm Calm - N/A   Mostly Cloudy
1:56 AM 66.9 °F 66.0 °F 97% 30.15 in 6.0 mi Calm Calm - N/A   Mostly Cloudy
2:56 AM 66.9 °F 66.0 °F 97% 30.14 in 10.0 mi NW 3.5 mph - N/A   Mostly Cloudy
3:56 AM 66.0 °F 64.9 °F 96% 30.14 in 8.0 mi Calm Calm - N/A   Mostly Cloudy
4:20 AM 64.0 °F 63.0 °F 96% 30.15 in 1.8 mi Calm Calm - N/A   Mostly Cloudy
4:53 AM 64.4 °F 64.4 °F 100% 30.16 in 3.0 mi Calm Calm - N/A   Scattered Clouds
4:56 AM 64.0 °F 64.0 °F 100% 30.15 in 3.0 mi Calm Calm - N/A   Scattered Clouds
5:56 AM 64.9 °F 63.0 °F 93% 30.16 in 10.0 mi WNW 4.6 mph - N/A   Scattered Clouds
6:56 AM 63.0 °F 62.1 °F 97% 30.16 in 6.0 mi WNW 3.5 mph - N/A   Scattered Clouds
7:56 AM 66.0 °F 64.0 °F 93% 30.15 in 10.0 mi NNW 6.9 mph - N/A   Partly Cloudy
8:15 AM 66.0 °F 63.0 °F 90% 30.16 in 10.0 mi NNW 11.5 mph - N/A   Scattered Clouds
8:56 AM 66.9 °F 63.0 °F 87% 30.17 in 10.0 mi NW 5.8 mph - N/A   Scattered Clouds
9:56 AM 71.1 °F 63.0 °F 75% 30.16 in 10.0 mi Calm Calm - N/A   Scattered Clouds
10:56 AM 71.1 °F 61.0 °F 70% 30.16 in 10.0 mi West 8.1 mph - N/A   Scattered Clouds
11:56 AM 73.9 °F 57.9 °F 57% 30.14 in 10.0 mi NW 5.8 mph - N/A   Partly Cloudy
12:56 PM 75.9 °F 53.1 °F 45% 30.12 in 10.0 mi NNW 4.6 mph - N/A   Partly Cloudy
1:56 PM 78.1 °F 54.0 °F 43% 30.10 in 10.0 mi WNW 8.1 mph - N/A   Partly Cloudy
2:56 PM 78.1 °F 53.1 °F 42% 30.08 in 10.0 mi WSW 9.2 mph - N/A   Partly Cloudy
3:56 PM 79.0 °F 50.0 °F 36% 30.06 in 10.0 mi WNW 9.2 mph - N/A   Partly Cloudy
4:56 PM 77.0 °F 52.0 °F 42% 30.07 in 10.0 mi NW 9.2 mph - N/A   Clear
5:56 PM 78.1 °F 50.0 °F 37% 30.07 in 10.0 mi NW 8.1 mph - N/A   Clear
6:56 PM 70.0 °F 55.0 °F 59% 30.07 in 10.0 mi Calm Calm - N/A   Clear
7:56 PM 66.0 °F 57.0 °F 73% 30.07 in 10.0 mi Calm Calm - N/A   Clear
8:56 PM 66.0 °F 59.0 °F 78% 30.07 in 10.0 mi Calm Calm - N/A   Clear
10:56 PM 64.0 °F 59.0 °F 84% 30.06 in 10.0 mi NW 3.5 mph - N/A   Clear
11:56 PM 64.0 °F 59.0 °F 84% 30.05 in 10.0 mi Calm Calm - N/A   Clear